Weather History for Monroe, NC

Change the Weather History Date:

Friday, November 22, 2013

  Actual Average (KCLT) Record (KCLT)
Temperature  
Mean Temperature 60 °F 49 °F  
Max Temperature 68 °F 60 °F 76 °F (2011)
Min Temperature 53 °F 37 °F 13 °F (2008)
Degree Days  
Heating Degree Days 4 16  
Month to date heating degree days 288  
Since 1 July heating degree days 494  
Cooling Degree Days 0 0  
Month to date cooling degree days 0  
Year to date cooling degree days 1513  
Growing Degree Days 10 (Base 50)    
Moisture  
Dew Point 52 °F    
Average Humidity 75    
Maximum Humidity 90    
Minimum Humidity 68    
Precipitation  
Precipitation 0.00 in 0.11 in 1.68 in (2006)
Month to date precipitation 2.26  
Year to date precipitation 37.50  
Snow  
Snow 0.00 in 0.00 in T in (1989)
Month to date snowfall 0.1  
Since 1 July snowfall 0.1  
Since 1 September snowfall 0.1  
Snow Depth -    
Sea Level Pressure  
Sea Level Pressure 30.28 in    
Wind  
Wind Speed 5 mph (West)    
Max Wind Speed 13 mph    
Max Gust Speed -    
Visibility 10 miles    
Events      
T = Trace of Precipitation, MM = Missing Value Source: NWS Daily Summary

Daily Weather History Graph

Daily Weather History Graph

Search for Another Location

Airport:

Trip Planner

Search our weather history database for the weather conditions in past years. The results will help you decide how hot, cold, wet, or windy it might be!

Date:

Astronomy

Nov. 22, 2013 Rise Set
Actual Time 7:04 AM EST 5:13 PM EST
Civil Twilight 6:36 AM EST 5:40 PM EST
Nautical Twilight 6:05 AM EST 6:11 PM EST
Astronomical Twilight 5:35 AM EST 6:41 PM EST
Moon 9:40 PM EST (11/22) 10:48 AM EST (11/22)
Length of Visible Light 11h 03m
Length of Day
10h 09m
Waning Gibbous, 78% of the Moon is Illuminated
Nov 22
Waning Gibbous
Nov 25
Last Quarter
Dec 2
New
Dec 9
First Quarter
Dec 17
Full

Hourly Weather History & Observations

Time (EST) Temp. Dew Point Humidity Pressure Visibility Wind Dir Wind Speed Gust Speed Precip Events Conditions
12:37 AM 53.6 °F 46.4 °F 77% 30.37 in 10.0 mi NNE 4.6 mph - N/A   Overcast
12:53 AM 54.0 °F 46.0 °F 75% 30.40 in 10.0 mi North 4.6 mph - N/A   Overcast
1:53 AM 55.0 °F 45.0 °F 69% 30.39 in 10.0 mi North 3.5 mph - N/A   Overcast
2:21 AM 53.6 °F 44.6 °F 72% 30.36 in 10.0 mi North 5.8 mph - N/A   Overcast
2:42 AM 53.6 °F 44.6 °F 72% 30.35 in 10.0 mi NE 8.1 mph - N/A   Overcast
2:53 AM 54.0 °F 45.0 °F 72% 30.38 in 10.0 mi NE 6.9 mph - N/A   Overcast
3:35 AM 53.6 °F 44.6 °F 72% 30.34 in 10.0 mi North 5.8 mph - N/A   Overcast
3:53 AM 54.0 °F 45.0 °F 72% 30.36 in 10.0 mi NNE 5.8 mph - N/A   Overcast
4:53 AM 53.1 °F 44.1 °F 71% 30.36 in 10.0 mi NNE 4.6 mph - N/A   Overcast
5:53 AM 53.1 °F 44.1 °F 71% 30.36 in 10.0 mi NNE 3.5 mph - N/A   Overcast
6:53 AM 53.1 °F 44.1 °F 71% 30.37 in 10.0 mi Calm Calm - N/A   Overcast
7:53 AM 54.0 °F 45.0 °F 72% 30.36 in 10.0 mi Calm Calm - N/A   Overcast
8:53 AM 55.9 °F 48.0 °F 75% 30.35 in 10.0 mi Calm Calm - N/A   Overcast
9:53 AM 57.9 °F 50.0 °F 75% 30.35 in 10.0 mi WSW 4.6 mph - N/A   Overcast
10:36 AM 62.6 °F 51.8 °F 68% 30.32 in 10.0 mi Calm Calm - N/A   Overcast
10:43 AM 62.6 °F 51.8 °F 68% 30.32 in 10.0 mi Calm Calm - N/A   Overcast
10:50 AM 62.6 °F 51.8 °F 68% 30.31 in 10.0 mi SW 3.5 mph - N/A   Overcast
10:53 AM 62.1 °F 52.0 °F 70% 30.34 in 10.0 mi Calm Calm - N/A   Overcast
11:05 AM 62.6 °F 53.6 °F 72% 30.31 in 10.0 mi West 4.6 mph - N/A   Overcast
11:19 AM 64.4 °F 53.6 °F 68% 30.30 in 10.0 mi West 5.8 mph - N/A   Overcast
11:53 AM 64.9 °F 54.0 °F 68% 30.31 in 10.0 mi Variable 6.9 mph - N/A   Overcast
12:53 PM 66.9 °F 57.0 °F 70% 30.27 in 10.0 mi SW 8.1 mph - N/A   Overcast
1:53 PM 68.0 °F 57.0 °F 68% 30.25 in 10.0 mi WSW 10.4 mph - N/A   Overcast
2:53 PM 68.0 °F 57.0 °F 68% 30.22 in 10.0 mi WSW 12.7 mph - N/A   Overcast
3:53 PM 66.9 °F 57.9 °F 73% 30.22 in 10.0 mi SW 9.2 mph - N/A   Mostly Cloudy
4:02 PM 66.2 °F 57.2 °F 73% 30.20 in 10.0 mi SW 12.7 mph - N/A   Mostly Cloudy
4:11 PM 66.2 °F 57.2 °F 73% 30.20 in 10.0 mi SW 10.4 mph - N/A   Overcast
4:53 PM 66.0 °F 57.9 °F 75% 30.20 in 10.0 mi SW 8.1 mph - N/A   Overcast
5:53 PM 63.0 °F 57.9 °F 84% 30.20 in 10.0 mi SW 9.2 mph - N/A   Scattered Clouds
6:53 PM 63.0 °F 57.9 °F 84% 30.18 in 10.0 mi SSW 9.2 mph - N/A   Overcast
7:53 PM 63.0 °F 59.0 °F 87% 30.17 in 10.0 mi WSW 9.2 mph - N/A   Overcast
8:53 PM 62.1 °F 59.0 °F 90% 30.17 in 10.0 mi SW 9.2 mph - N/A   Overcast
9:25 PM 62.6 °F 59.0 °F 88% 30.14 in 10.0 mi WSW 9.2 mph - N/A   Scattered Clouds
9:53 PM 62.1 °F 59.0 °F 90% 30.17 in 10.0 mi WSW 9.2 mph - N/A   Overcast
10:53 PM 62.1 °F 59.0 °F 90% 30.15 in 10.0 mi WSW 6.9 mph - N/A   Overcast
11:01 PM 62.6 °F 59.0 °F 88% 30.13 in 10.0 mi WSW 9.2 mph - N/A   Overcast
11:53 PM 62.1 °F 57.9 °F 86% 30.14 in 10.0 mi West 8.1 mph - 0.00 in   Overcast